TimeEDT,TemperatureF,Dew PointF,Humidity,Sea Level PressureIn,VisibilityMPH,Wind Direction,Wind SpeedMPH,Gust SpeedMPH,PrecipitationIn,Events,Conditions,WindDirDegrees,DateUTC
12:51 AM,63.0,46.9,56,29.85,10.0,NNW,9.2,-,N/A,,Partly Cloudy,340,2013-05-17 04:51:00
1:51 AM,66.0,37.9,36,29.87,10.0,NNW,10.4,-,N/A,,Partly Cloudy,340,2013-05-17 05:51:00
2:51 AM,66.0,35.1,32,29.89,10.0,NNW,18.4,26.5,N/A,,Partly Cloudy,330,2013-05-17 06:51:00
3:51 AM,61.0,34.0,36,29.92,10.0,NW,9.2,-,N/A,,Clear,320,2013-05-17 07:51:00
4:51 AM,61.0,36.0,39,29.95,10.0,NW,11.5,-,N/A,,Partly Cloudy,310,2013-05-17 08:51:00
5:51 AM,60.1,37.9,44,29.98,10.0,NNW,13.8,-,N/A,,Scattered Clouds,330,2013-05-17 09:51:00
6:51 AM,61.0,39.0,44,30.01,10.0,North,10.4,-,N/A,,Mostly Cloudy,360,2013-05-17 10:51:00
7:51 AM,62.1,39.9,44,30.05,10.0,North,12.7,-,N/A,,Mostly Cloudy,350,2013-05-17 11:51:00
8:51 AM,64.0,39.9,41,30.06,10.0,North,6.9,-,N/A,,Mostly Cloudy,350,2013-05-17 12:51:00
9:51 AM,64.0,39.0,40,30.06,10.0,NW,9.2,17.3,N/A,,Mostly Cloudy,320,2013-05-17 13:51:00
10:51 AM,64.9,39.9,40,30.07,10.0,WNW,10.4,21.9,N/A,,Mostly Cloudy,300,2013-05-17 14:51:00
11:51 AM,66.9,39.0,36,30.08,10.0,North,15.0,21.9,N/A,,Mostly Cloudy,350,2013-05-17 15:51:00
12:51 PM,68.0,37.0,32,30.09,10.0,North,12.7,-,N/A,,Mostly Cloudy,350,2013-05-17 16:51:00
1:51 PM,68.0,36.0,31,30.09,10.0,North,8.1,-,N/A,,Mostly Cloudy,10,2013-05-17 17:51:00
2:51 PM,71.1,37.0,29,30.09,10.0,NNW,10.4,18.4,N/A,,Scattered Clouds,340,2013-05-17 18:51:00
3:51 PM,72.0,35.1,26,30.09,10.0,North,11.5,20.7,N/A,,Mostly Cloudy,360,2013-05-17 19:51:00
4:51 PM,73.0,36.0,26,30.09,10.0,NNW,9.2,-,N/A,,Mostly Cloudy,330,2013-05-17 20:51:00
5:51 PM,71.1,39.9,32,30.10,10.0,Variable,4.6,-,N/A,,Mostly Cloudy,0,2013-05-17 21:51:00
6:51 PM,68.0,41.0,37,30.12,10.0,South,9.2,-,N/A,,Mostly Cloudy,190,2013-05-17 22:51:00
7:51 PM,64.0,42.1,45,30.13,10.0,South,5.8,-,N/A,,Mostly Cloudy,190,2013-05-17 23:51:00
8:51 PM,64.0,41.0,43,30.16,10.0,Calm,Calm,-,N/A,,Mostly Cloudy,0,2013-05-18 00:51:00
9:51 PM,64.0,39.0,40,30.19,10.0,ENE,4.6,-,N/A,,Mostly Cloudy,60,2013-05-18 01:51:00
10:51 PM,62.1,41.0,46,30.20,10.0,Calm,Calm,-,0.00,,Mostly Cloudy,0,2013-05-18 02:51:00
11:51 PM,57.9,46.0,65,30.22,10.0,South,4.6,-,N/A,,Scattered Clouds,170,2013-05-18 03:51:00